• In Portugal
  • List of Countries
  • For 7 days
  • Water Temperature
  • Satellite Maps
  • Weather Map
  • Weather Widgets
  • user-avatar
    Login

    Hourly Weather Side

    Today, 15 December, Friday

    Time Temperature Precipitation Wind Pressure Humidity
    00:00 +13°C° 0 mm 3 mps 761 mmHg 68%
    01:00 +13°C° 0 mm 3 mps 762 mmHg 69%
    02:00 +14°C° 0 mm 2 mps 762 mmHg 69%
    03:00 +14°C° 0 mm 2 mps 762 mmHg 69%
    04:00 +12°C° 0 mm 3 mps 762 mmHg 70%
    05:00 +12°C° 0 mm 3 mps 762 mmHg 70%
    06:00 +14°C° 0 mm 2 mps 762 mmHg 69%
    07:00 +14°C° 0 mm 2 mps 762 mmHg 68%
    08:00 +14°C° 0 mm 2 mps 762 mmHg 67%
    09:00 +16°C° 0 mm 2 mps 763 mmHg 63%
    10:00 +18°C° 0 mm 2 mps 763 mmHg 59%
    11:00 +19°C° 0 mm 2 mps 763 mmHg 54%
    12:00 +19°C° 0 mm 2 mps 763 mmHg 55%
    13:00 +19°C° 0 mm 2 mps 763 mmHg 56%
    14:00 +20°C° 0 mm 2 mps 762 mmHg 57%
    15:00 +18°C° 0 mm 2 mps 763 mmHg 64%
    16:00 +16°C° 0 mm 2 mps 763 mmHg 71%
    17:00 +15°C° 0 mm 2 mps 763 mmHg 78%
    18:00 +15°C° 0 mm 2 mps 764 mmHg 78%
    19:00 +15°C° 0 mm 2 mps 764 mmHg 78%
    20:00 +14°C° 0 mm 2 mps 764 mmHg 77%
    21:00 +14°C° 0 mm 2 mps 764 mmHg 76%
    22:00 +14°C° 0 mm 2 mps 765 mmHg 75%
    23:00 +14°C° 0 mm 2 mps 765 mmHg 74%

    Tomorrow, 16 December, Saturday

    Time Temperature Precipitation Wind Pressure Humidity
    00:00 +14°C° 0 mm 2 mps 765 mmHg 75%
    01:00 +14°C° 0 mm 2 mps 765 mmHg 76%
    02:00 +14°C° 0 mm 2 mps 765 mmHg 76%
    03:00 +14°C° 0.1 mm 2 mps 765 mmHg 78%
    04:00 +14°C° 0.1 mm 2 mps 765 mmHg 80%
    05:00 +14°C° 0.1 mm 2 mps 765 mmHg 81%
    06:00 +14°C° 0.1 mm 2 mps 765 mmHg 82%
    07:00 +15°C° 0.1 mm 2 mps 765 mmHg 82%
    08:00 +15°C° 0.1 mm 2 mps 765 mmHg 82%
    09:00 +16°C° 0.1 mm 2 mps 765 mmHg 79%
    10:00 +17°C° 0.1 mm 2 mps 765 mmHg 76%
    11:00 +18°C° 0.1 mm 2 mps 765 mmHg 73%
    12:00 +18°C° 0.1 mm 2 mps 765 mmHg 73%
    13:00 +18°C° 0.1 mm 2 mps 764 mmHg 73%
    14:00 +18°C° 0.1 mm 2 mps 764 mmHg 73%
    15:00 +18°C° 0.1 mm 2 mps 764 mmHg 77%
    16:00 +17°C° 0.1 mm 2 mps 764 mmHg 81%
    17:00 +16°C° 0.1 mm 2 mps 764 mmHg 85%
    18:00 +16°C° 0.1 mm 3 mps 764 mmHg 85%
    19:00 +14°C° 0.1 mm 3 mps 764 mmHg 84%
    20:00 +14°C° 0.1 mm 3 mps 764 mmHg 83%
    21:00 +14°C° 1.2 mm 3 mps 765 mmHg 84%
    22:00 +14°C° 1.2 mm 3 mps 765 mmHg 85%
    23:00 +14°C° 1.2 mm 3 mps 765 mmHg 86%

    Day after tomorrow, 17 December, Sunday

    Time Temperature Precipitation Wind Pressure Humidity
    00:00 +14°C° 0.5 mm 3 mps 765 mmHg 87%
    01:00 +14°C° 0.5 mm 3 mps 764 mmHg 87%
    02:00 +14°C° 0.5 mm 3 mps 764 mmHg 88%
    03:00 +14°C° 0.1 mm 3 mps 764 mmHg 88%
    04:00 +14°C° 0.1 mm 3 mps 764 mmHg 88%
    05:00 +14°C° 0.1 mm 3 mps 763 mmHg 88%
    06:00 +16°C° 0.2 mm 3 mps 764 mmHg 88%
    07:00 +15°C° 0.2 mm 4 mps 764 mmHg 87%
    08:00 +15°C° 0.2 mm 4 mps 764 mmHg 86%
    09:00 +15°C° 0.3 mm 4 mps 764 mmHg 85%
    10:00 +16°C° 0.3 mm 5 mps 764 mmHg 84%
    11:00 +16°C° 0.3 mm 5 mps 764 mmHg 83%
    12:00 +16°C° 0.2 mm 5 mps 763 mmHg 83%
    13:00 +16°C° 0.2 mm 5 mps 763 mmHg 83%
    14:00 +17°C° 0.2 mm 5 mps 763 mmHg 83%
    15:00 +16°C° 0.3 mm 5 mps 763 mmHg 85%
    16:00 +16°C° 0.3 mm 5 mps 763 mmHg 87%
    17:00 +15°C° 0.3 mm 5 mps 763 mmHg 88%
    18:00 +15°C° 0.7 mm 5 mps 763 mmHg 88%
    19:00 +15°C° 0.7 mm 5 mps 763 mmHg 88%
    20:00 +15°C° 0.7 mm 5 mps 764 mmHg 88%
    21:00 +15°C° 0.8 mm 5 mps 764 mmHg 88%
    22:00 +15°C° 0.8 mm 5 mps 764 mmHg 88%
    23:00 +15°C° 0.8 mm 5 mps 764 mmHg 89%

    18 December, Monday

    Time Temperature Precipitation Wind Pressure Humidity
    00:00 +15°C° 1 mm 5 mps 764 mmHg 90%
    01:00 +15°C° 1 mm 5 mps 764 mmHg 91%
    02:00 +15°C° 1 mm 5 mps 764 mmHg 92%
    03:00 +15°C° 1 mm 5 mps 764 mmHg 91%
    04:00 +15°C° 1 mm 5 mps 763 mmHg 91%
    05:00 +15°C° 1 mm 5 mps 763 mmHg 91%
    06:00 +15°C° 0.9 mm 5 mps 763 mmHg 91%
    07:00 +15°C° 0.9 mm 5 mps 764 mmHg 90%
    08:00 +15°C° 0.9 mm 5 mps 764 mmHg 89%
    09:00 +16°C° 0.9 mm 5 mps 764 mmHg 88%
    10:00 +16°C° 0.9 mm 5 mps 764 mmHg 86%
    11:00 +17°C° 0.9 mm 6 mps 763 mmHg 84%
    12:00 +17°C° 0.9 mm 6 mps 763 mmHg 83%
    13:00 +17°C° 0.9 mm 6 mps 762 mmHg 83%
    14:00 +17°C° 0.9 mm 6 mps 762 mmHg 83%
    15:00 +16°C° 0.8 mm 6 mps 762 mmHg 84%
    16:00 +16°C° 0.8 mm 6 mps 762 mmHg 86%
    17:00 +16°C° 0.8 mm 6 mps 762 mmHg 87%
    18:00 +15°C° 0.7 mm 6 mps 762 mmHg 87%
    19:00 +15°C° 0.7 mm 6 mps 762 mmHg 87%
    20:00 +15°C° 0.7 mm 6 mps 762 mmHg 87%
    21:00 +15°C° 0.8 mm 6 mps 762 mmHg 86%
    22:00 +15°C° 0.8 mm 6 mps 762 mmHg 86%
    23:00 +15°C° 0.8 mm 7 mps 762 mmHg 85%

    19 December, Tuesday

    Time Temperature Precipitation Wind Pressure Humidity
    00:00 +15°C° 0.4 mm 6 mps 762 mmHg 84%
    01:00 +14°C° 0.4 mm 6 mps 762 mmHg 83%
    02:00 +14°C° 0.4 mm 6 mps 762 mmHg 81%
    03:00 +14°C° 0.2 mm 5 mps 762 mmHg 81%
    04:00 +14°C° 0.2 mm 5 mps 763 mmHg 81%
    05:00 +13°C° 0.2 mm 4 mps 763 mmHg 81%
    06:00 +13°C° 0.1 mm 4 mps 763 mmHg 81%
    07:00 +13°C° 0.1 mm 4 mps 764 mmHg 80%
    08:00 +13°C° 0.1 mm 4 mps 764 mmHg 80%
    09:00 +14°C° 0 mm 4 mps 764 mmHg 74%
    10:00 +15°C° 0 mm 4 mps 764 mmHg 68%
    11:00 +18°C° 0 mm 4 mps 764 mmHg 61%
    12:00 +18°C° 0 mm 3 mps 764 mmHg 60%
    13:00 +18°C° 0 mm 3 mps 763 mmHg 58%
    14:00 +18°C° 0 mm 3 mps 763 mmHg 57%
    15:00 +17°C° 0 mm 2 mps 763 mmHg 61%
    16:00 +16°C° 0 mm 2 mps 763 mmHg 65%
    17:00 +14°C° 0 mm 2 mps 764 mmHg 69%
    18:00 +14°C° 0 mm 2 mps 764 mmHg 69%
    19:00 +14°C° 0 mm 2 mps 764 mmHg 69%
    20:00 +14°C° 0 mm 2 mps 764 mmHg 69%
    21:00 +13°C° 0 mm 2 mps 764 mmHg 69%
    22:00 +13°C° 0 mm 2 mps 764 mmHg 68%
    23:00 +13°C° 0 mm 2 mps 764 mmHg 67%

    20 December, Wednesday

    Time Temperature Precipitation Wind Pressure Humidity
    00:00 +12°C° 0 mm 3 mps 764 mmHg 66%
    01:00 +12°C° 0 mm 3 mps 764 mmHg 64%
    02:00 +12°C° 0 mm 3 mps 763 mmHg 62%
    03:00 +12°C° 0 mm 3 mps 763 mmHg 61%
    04:00 +12°C° 0 mm 3 mps 763 mmHg 60%
    05:00 +12°C° 0 mm 3 mps 763 mmHg 59%
    06:00 +12°C° 0 mm 3 mps 763 mmHg 61%
    07:00 +13°C° 0 mm 3 mps 763 mmHg 62%
    08:00 +13°C° 0 mm 3 mps 764 mmHg 64%
    09:00 +14°C° 0 mm 3 mps 763 mmHg 65%
    10:00 +14°C° 0 mm 3 mps 763 mmHg 65%
    11:00 +16°C° 0 mm 3 mps 763 mmHg 65%
    12:00 +16°C° 0.1 mm 3 mps 763 mmHg 67%
    13:00 +16°C° 0.1 mm 2 mps 762 mmHg 69%
    14:00 +16°C° 0.1 mm 2 mps 762 mmHg 70%
    15:00 +15°C° 0.2 mm 2 mps 762 mmHg 74%
    16:00 +15°C° 0.2 mm 2 mps 762 mmHg 79%
    17:00 +14°C° 0.2 mm 2 mps 762 mmHg 83%
    18:00 +13°C° 0.6 mm 3 mps 762 mmHg 83%
    19:00 +13°C° 0.6 mm 3 mps 763 mmHg 83%
    20:00 +13°C° 0.6 mm 4 mps 763 mmHg 84%
    21:00 +13°C° 0.9 mm 4 mps 763 mmHg 83%
    22:00 +13°C° 0.9 mm 4 mps 763 mmHg 83%
    23:00 +13°C° 0.9 mm 4 mps 763 mmHg 82%
    Show more